Stündliche Wetter Bolshie Krugovichi

Heute, 17 Juni, Donnerstag

Zeit Temperatur Niederschläge Wind Luftdruck Luftfeuchtigkeit
00:00 +14°C° 0 mm 2 m/S 748 mmHg 86%
01:00 +13°C° 0 mm 2 m/S 749 mmHg 88%
02:00 +13°C° 0 mm 2 m/S 749 mmHg 90%
03:00 +13°C° 0 mm 2 m/S 749 mmHg 89%
04:00 +13°C° 0 mm 2 m/S 749 mmHg 88%
05:00 +13°C° 0 mm 2 m/S 749 mmHg 87%
06:00 +15°C° 0 mm 2 m/S 749 mmHg 80%
07:00 +17°C° 0 mm 3 m/S 750 mmHg 73%
08:00 +19°C° 0 mm 3 m/S 750 mmHg 65%
09:00 +21°C° 0 mm 3 m/S 750 mmHg 61%
10:00 +23°C° 0 mm 2 m/S 750 mmHg 56%
11:00 +25°C° 0 mm 2 m/S 751 mmHg 52%
12:00 +25°C° 0 mm 3 m/S 751 mmHg 50%
13:00 +26°C° 0 mm 3 m/S 751 mmHg 49%
14:00 +26°C° 0 mm 3 m/S 750 mmHg 47%
15:00 +26°C° 0 mm 3 m/S 750 mmHg 49%
16:00 +26°C° 0 mm 2 m/S 750 mmHg 52%
17:00 +26°C° 0 mm 2 m/S 750 mmHg 54%
18:00 +24°C° 0 mm 2 m/S 750 mmHg 61%
19:00 +23°C° 0 mm 2 m/S 750 mmHg 69%
20:00 +20°C° 0 mm 2 m/S 750 mmHg 76%
21:00 +19°C° 0 mm 2 m/S 751 mmHg 78%
22:00 +17°C° 0 mm 2 m/S 751 mmHg 79%
23:00 +16°C° 0 mm 2 m/S 751 mmHg 81%

Morgen, 18 Juni, Freitag

Zeit Temperatur Niederschläge Wind Luftdruck Luftfeuchtigkeit
00:00 +16°C° 0 mm 2 m/S 751 mmHg 83%
01:00 +15°C° 0 mm 2 m/S 751 mmHg 86%
02:00 +14°C° 0 mm 2 m/S 751 mmHg 89%
03:00 +14°C° 0 mm 2 m/S 751 mmHg 89%
04:00 +14°C° 0 mm 2 m/S 751 mmHg 89%
05:00 +14°C° 0 mm 2 m/S 752 mmHg 89%
06:00 +16°C° 0 mm 2 m/S 752 mmHg 82%
07:00 +18°C° 0 mm 3 m/S 752 mmHg 75%
08:00 +20°C° 0 mm 3 m/S 752 mmHg 68%
09:00 +22°C° 0 mm 3 m/S 752 mmHg 63%
10:00 +24°C° 0 mm 3 m/S 752 mmHg 58%
11:00 +25°C° 0 mm 4 m/S 752 mmHg 53%
12:00 +26°C° 0 mm 4 m/S 751 mmHg 51%
13:00 +26°C° 0 mm 4 m/S 751 mmHg 49%
14:00 +27°C° 0 mm 3 m/S 751 mmHg 46%
15:00 +27°C° 0 mm 3 m/S 750 mmHg 49%
16:00 +27°C° 0 mm 3 m/S 750 mmHg 52%
17:00 +27°C° 0 mm 3 m/S 750 mmHg 55%
18:00 +25°C° 0 mm 3 m/S 750 mmHg 63%
19:00 +22°C° 0 mm 3 m/S 750 mmHg 71%
20:00 +21°C° 0 mm 2 m/S 750 mmHg 80%
21:00 +20°C° 0 mm 3 m/S 750 mmHg 82%
22:00 +18°C° 0 mm 3 m/S 750 mmHg 84%
23:00 +17°C° 0 mm 3 m/S 750 mmHg 87%

übermorgen, 19 Juni, Samstag

Zeit Temperatur Niederschläge Wind Luftdruck Luftfeuchtigkeit
00:00 +17°C° 0 mm 2 m/S 750 mmHg 89%
01:00 +16°C° 0 mm 2 m/S 750 mmHg 92%
02:00 +16°C° 0 mm 2 m/S 750 mmHg 94%
03:00 +16°C° 0 mm 2 m/S 750 mmHg 95%
04:00 +16°C° 0 mm 2 m/S 750 mmHg 95%
05:00 +16°C° 0 mm 2 m/S 751 mmHg 96%
06:00 +18°C° 0 mm 2 m/S 751 mmHg 89%
07:00 +20°C° 0 mm 3 m/S 751 mmHg 83%
08:00 +22°C° 0 mm 3 m/S 751 mmHg 76%
09:00 +24°C° 0 mm 3 m/S 750 mmHg 71%
10:00 +25°C° 0 mm 3 m/S 750 mmHg 65%
11:00 +27°C° 0 mm 3 m/S 750 mmHg 60%
12:00 +27°C° 0 mm 3 m/S 750 mmHg 57%
13:00 +28°C° 0 mm 4 m/S 749 mmHg 54%
14:00 +28°C° 0 mm 4 m/S 749 mmHg 50%
15:00 +28°C° 0 mm 4 m/S 749 mmHg 52%
16:00 +28°C° 0 mm 3 m/S 749 mmHg 54%
17:00 +27°C° 0 mm 3 m/S 748 mmHg 56%
18:00 +26°C° 0 mm 3 m/S 748 mmHg 64%
19:00 +24°C° 0 mm 3 m/S 748 mmHg 71%
20:00 +21°C° 0 mm 3 m/S 748 mmHg 79%
21:00 +20°C° 0 mm 3 m/S 748 mmHg 82%
22:00 +19°C° 0 mm 2 m/S 748 mmHg 84%
23:00 +19°C° 0 mm 2 m/S 748 mmHg 87%

20 Juni, Sonntag

Zeit Temperatur Niederschläge Wind Luftdruck Luftfeuchtigkeit
00:00 +18°C° 0 mm 2 m/S 748 mmHg 89%
01:00 +18°C° 0 mm 2 m/S 748 mmHg 91%
02:00 +17°C° 0 mm 2 m/S 748 mmHg 94%
03:00 +18°C° 0 mm 2 m/S 748 mmHg 93%
04:00 +18°C° 0 mm 2 m/S 748 mmHg 92%
05:00 +19°C° 0 mm 1 m/S 748 mmHg 91%
06:00 +19°C° 0 mm 2 m/S 748 mmHg 87%
07:00 +21°C° 0 mm 2 m/S 748 mmHg 82%
08:00 +23°C° 0 mm 2 m/S 748 mmHg 78%
09:00 +24°C° 0 mm 3 m/S 748 mmHg 73%
10:00 +25°C° 0 mm 3 m/S 748 mmHg 68%
11:00 +26°C° 0 mm 3 m/S 748 mmHg 62%
12:00 +26°C° 0.2 mm 3 m/S 748 mmHg 63%
13:00 +27°C° 0.2 mm 4 m/S 747 mmHg 63%
14:00 +27°C° 0.2 mm 4 m/S 747 mmHg 64%
15:00 +27°C° 0.4 mm 3 m/S 747 mmHg 65%
16:00 +28°C° 0.4 mm 3 m/S 747 mmHg 66%
17:00 +28°C° 0.4 mm 2 m/S 746 mmHg 67%
18:00 +26°C° 0.2 mm 2 m/S 746 mmHg 72%
19:00 +25°C° 0.2 mm 2 m/S 746 mmHg 77%
20:00 +24°C° 0.2 mm 2 m/S 746 mmHg 82%
21:00 +23°C° 0.1 mm 2 m/S 746 mmHg 85%
22:00 +21°C° 0.1 mm 2 m/S 746 mmHg 88%
23:00 +20°C° 0.1 mm 3 m/S 746 mmHg 91%

21 Juni, Montag

Zeit Temperatur Niederschläge Wind Luftdruck Luftfeuchtigkeit
00:00 +19°C° 0 mm 2 m/S 746 mmHg 92%
01:00 +18°C° 0 mm 2 m/S 746 mmHg 93%
02:00 +18°C° 0 mm 2 m/S 746 mmHg 94%
03:00 +18°C° 0 mm 2 m/S 746 mmHg 94%
04:00 +18°C° 0 mm 2 m/S 746 mmHg 95%
05:00 +18°C° 0 mm 2 m/S 746 mmHg 95%
06:00 +19°C° 0 mm 2 m/S 746 mmHg 89%
07:00 +21°C° 0 mm 3 m/S 746 mmHg 83%
08:00 +24°C° 0 mm 3 m/S 746 mmHg 77%
09:00 +25°C° 0 mm 4 m/S 746 mmHg 70%
10:00 +26°C° 0 mm 4 m/S 746 mmHg 63%
11:00 +28°C° 0 mm 5 m/S 746 mmHg 57%
12:00 +28°C° 0 mm 5 m/S 745 mmHg 55%
13:00 +29°C° 0 mm 5 m/S 745 mmHg 53%
14:00 +30°C° 0 mm 4 m/S 745 mmHg 50%
15:00 +30°C° 0 mm 4 m/S 745 mmHg 53%
16:00 +29°C° 0 mm 4 m/S 745 mmHg 56%
17:00 +29°C° 0 mm 4 m/S 744 mmHg 58%
18:00 +28°C° 0 mm 4 m/S 744 mmHg 66%
19:00 +26°C° 0 mm 3 m/S 744 mmHg 73%
20:00 +24°C° 0 mm 3 m/S 744 mmHg 80%
21:00 +24°C° 0 mm 3 m/S 744 mmHg 82%
22:00 +22°C° 0 mm 3 m/S 744 mmHg 85%
23:00 +21°C° 0 mm 3 m/S 744 mmHg 87%

22 Juni, Dienstag

Zeit Temperatur Niederschläge Wind Luftdruck Luftfeuchtigkeit
00:00 +20°C° 0 mm 3 m/S 744 mmHg 89%
01:00 +20°C° 0 mm 3 m/S 744 mmHg 92%
02:00 +19°C° 0 mm 3 m/S 744 mmHg 95%
03:00 +19°C° 0 mm 3 m/S 744 mmHg 95%
04:00 +19°C° 0 mm 2 m/S 744 mmHg 95%
05:00 +19°C° 0 mm 2 m/S 744 mmHg 96%
06:00 +21°C° 0 mm 3 m/S 744 mmHg 90%
07:00 +22°C° 0 mm 3 m/S 744 mmHg 84%
08:00 +25°C° 0 mm 4 m/S 744 mmHg 78%
09:00 +26°C° 0 mm 4 m/S 744 mmHg 71%
10:00 +28°C° 0 mm 5 m/S 744 mmHg 64%
11:00 +29°C° 0 mm 5 m/S 744 mmHg 56%
12:00 +30°C° 0 mm 5 m/S 744 mmHg 53%
13:00 +32°C° 0 mm 5 m/S 744 mmHg 50%
14:00 +33°C° 0 mm 5 m/S 744 mmHg 47%
15:00 +33°C° 0 mm 5 m/S 744 mmHg 49%
16:00 +32°C° 0 mm 5 m/S 744 mmHg 50%
17:00 +32°C° 0 mm 5 m/S 744 mmHg 52%
18:00 +29°C° 0 mm 5 m/S 744 mmHg 58%
19:00 +28°C° 0 mm 5 m/S 744 mmHg 63%
20:00 +26°C° 0 mm 4 m/S 744 mmHg 68%
21:00 +25°C° 0 mm 4 m/S 744 mmHg 70%
22:00 +23°C° 0 mm 4 m/S 744 mmHg 72%
23:00 +22°C° 0 mm 4 m/S 745 mmHg 74%
Mehr zeigen

Wir brauchen deine Erlaubnis

Meteoprog und unser Service Anbieter werden persönliche Daten aufbewahren, so wie Cookies, Geräte Bezeichnung oder ähnliche Technologien von deinem Gerät und Prozess, so wie Persönliche Daten Inhalte und Werbungen, genauso wie social Media und den Verkehr zu analysieren.

  • Aufbewahrung und/oder Zugang zu deiner Geräte Informationen.

    Cookies, Geräte Bezeichnung oder andere Informationen, können aufbewahrt oder Zugang zu deinem Gerät erhalten, für den Grund, der oben angegeben wird.

  • Personalisierte Werbung und Inhalte, Messungen, Einblick in das Publikum und Produkt Entwicklung.

    Werbungen und Inhalte können personalisiert werden, basierend auf ein Profil. Mehr Daten können besser personalisierte Werbungen und Inhalte hinzufügen. Werbung und Inhalte können gezeigt und gemessen werden. Einblicke über das Publikum, welche die Werbung gesehen haben und den Inhalt, können abgeleitet werden. So wie Daten können genutzt werden, um es zu verbessern oder die Benutzer Erfahrung zu verbessern das System und die Software.

Wenn du “Ich stimme zu” klickst, erlaubst du uns, die Cookies zu benutzen die Geräte Bezeichnung, den Web oder ähnliche Technologien zu benutzen. Deine Settings, können in deinem Gerät bei deinem Browser geändert werden.

Für den bestimmten Zweck, berechtigten Interessen beruhen darauf, mehr als auf den Inhalt. Du kannst mehr darüber in unseren Privaten und Cookie Politik lesen.